| time (UTC) | temp F | wind direction | speed MPH | gust MPH | rain 1hr in | rain 24hr in | rain mn in | humidity % | barometer mb |
| 20260507234542 | 48 | 12 | 1.0 | 8.0 | 0.00 | 0.00 | 0.00 | 65 | 1006.8 |
| 20260507233042 | 48 | 8 | 4.0 | 10.0 | 0.00 | 0.00 | 0.00 | 65 | 1006.7 |
| 20260507231541 | 48 | 15 | 3.0 | 9.0 | 0.00 | 0.00 | 0.00 | 66 | 1006.7 |
| 20260507230057 | 49 | 6 | 5.0 | 12.0 | 0.00 | 0.00 | 0.00 | 64 | 1006.7 |
| 20260507224542 | 49 | 9 | 6.0 | 12.0 | 0.00 | 0.00 | 0.00 | 63 | 1006.5 |
| 20260507223119 | 50 | 334 | 7.0 | 11.0 | 0.00 | 0.00 | 0.00 | 63 | 1006.5 |
| 20260507221539 | 50 | 350 | 8.0 | 13.0 | 0.00 | 0.00 | 0.00 | 63 | 1006.6 |
| 20260507220037 | 51 | 8 | 4.0 | 11.0 | 0.00 | 0.00 | 0.00 | 64 | 1006.5 |
| 20260507214544 | 51 | 6 | 5.0 | 15.0 | 0.00 | 0.00 | 0.00 | 62 | 1006.5 |
| 20260507213037 | 52 | 325 | 8.0 | 12.0 | 0.00 | 0.00 | 0.00 | 63 | 1006.5 |
| 20260507211535 | 53 | 13 | 5.0 | 13.0 | 0.00 | 0.00 | 0.00 | 63 | 1006.5 |
| 20260507210040 | 51 | 2 | 4.0 | 13.0 | 0.00 | 0.00 | 0.00 | 61 | 1006.6 |
| 20260507204537 | 51 | 356 | 8.0 | 14.0 | 0.00 | 0.00 | 0.00 | 64 | 1006.6 |
| 20260507203037 | 50 | 354 | 6.0 | 10.0 | 0.00 | 0.00 | 0.00 | 63 | 1006.7 |
| 20260507201532 | 51 | 359 | 6.0 | 12.0 | 0.00 | 0.00 | 0.00 | 64 | 1006.8 |
| 20260507200048 | 50 | 14 | 3.0 | 12.0 | 0.00 | 0.00 | 0.00 | 65 | 1006.7 |
| 20260507194531 | 52 | 12 | 7.0 | 14.0 | 0.00 | 0.00 | 0.00 | 63 | 1006.6 |
| 20260507193040 | 51 | 334 | 4.0 | 13.0 | 0.00 | 0.00 | 0.00 | 63 | 1006.8 |
| 20260507191526 | 52 | 323 | 3.0 | 11.0 | 0.00 | 0.00 | 0.00 | 64 | 1007.0 |
| 20260507190033 | 51 | 2 | 7.0 | 11.0 | 0.00 | 0.01 | 0.00 | 65 | 1007.1 |
| 20260507184523 | 49 | 354 | 7.0 | 13.0 | 0.00 | 0.01 | 0.00 | 65 | 1007.3 |
| 20260507183033 | 50 | 350 | 6.0 | 12.0 | 0.00 | 0.01 | 0.00 | 63 | 1007.3 |
| 20260507181522 | 50 | 334 | 4.0 | 11.0 | 0.00 | 0.01 | 0.00 | 66 | 1007.4 |
| 20260507180021 | 50 | 334 | 5.0 | 10.0 | 0.00 | 0.01 | 0.00 | 65 | 1007.5 |
| 20260507174521 | 50 | 329 | 6.0 | 9.0 | 0.00 | 0.01 | 0.00 | 68 | 1007.7 |
| 20260507173020 | 49 | 344 | 4.0 | 9.0 | 0.00 | 0.01 | 0.00 | 70 | 1007.7 |
| 20260507171517 | 48 | 349 | 7.0 | 13.0 | 0.00 | 0.01 | 0.00 | 68 | 1007.8 |
| 20260507170017 | 50 | 317 | 0.0 | 11.0 | 0.00 | 0.01 | 0.00 | 69 | 1007.9 |
| 20260507164514 | 51 | 303 | 9.0 | 14.0 | 0.00 | 0.01 | 0.00 | 68 | 1008.1 |
| 20260507163011 | 48 | 278 | 5.0 | 11.0 | 0.00 | 0.01 | 0.00 | 69 | 1008.2 |
| 20260507161511 | 47 | 339 | 4.0 | 12.0 | 0.00 | 0.01 | 0.00 | 69 | 1008.4 |
| 20260507160012 | 47 | 329 | 5.0 | 14.0 | 0.00 | 0.02 | 0.00 | 69 | 1008.5 |
| 20260507154509 | 47 | 334 | 8.0 | 13.0 | 0.00 | 0.02 | 0.00 | 69 | 1008.5 |
| 20260507153007 | 48 | 288 | 5.0 | 12.0 | 0.00 | 0.02 | 0.00 | 68 | 1008.6 |
| 20260507151505 | 49 | 310 | 5.0 | 10.0 | 0.00 | 0.02 | 0.00 | 66 | 1008.9 |
| 20260507150003 | 47 | 298 | 5.0 | 9.0 | 0.00 | 0.04 | 0.00 | 67 | 1009.0 |
| 20260507144501 | 46 | 250 | 6.0 | 11.0 | 0.00 | 0.04 | 0.00 | 68 | 1009.0 |
| 20260507143101 | 46 | 246 | 3.0 | 8.0 | 0.00 | 0.04 | 0.00 | 65 | 1009.1 |
| 20260507141556 | 44 | 330 | 3.0 | 8.0 | 0.00 | 0.04 | 0.00 | 64 | 1009.2 |
| 20260507140054 | 44 | 325 | 3.0 | 8.0 | 0.00 | 0.04 | 0.00 | 61 | 1009.4 |
| 20260507134558 | 44 | 319 | 3.0 | 9.0 | 0.00 | 0.05 | 0.00 | 60 | 1009.6 |
| 20260507133051 | 43 | 314 | 3.0 | 10.0 | 0.00 | 0.05 | 0.00 | 60 | 1009.7 |
| 20260507131546 | 42 | 314 | 3.0 | 9.0 | 0.00 | 0.05 | 0.00 | 62 | 1009.7 |
| 20260507130058 | 42 | 301 | 2.0 | 8.0 | 0.00 | 0.05 | 0.00 | 61 | 1009.7 |
| 20260507124557 | 41 | 301 | 1.0 | 8.0 | 0.00 | 0.09 | 0.00 | 59 | 1009.6 |
| 20260507123048 | 41 | 299 | 1.0 | 5.0 | 0.00 | 0.09 | 0.00 | 54 | 1009.3 |
| 20260507121543 | 41 | 300 | 0.0 | 5.0 | 0.00 | 0.09 | 0.00 | 52 | 1009.3 |
| 20260507120040 | 40 | 300 | 3.0 | 8.0 | 0.00 | 0.13 | 0.00 | 49 | 1009.4 |
| 20260507114537 | 39 | 288 | 3.0 | 8.0 | 0.00 | 0.13 | 0.00 | 49 | 1009.3 |
| 20260507113036 | 38 | 279 | 1.0 | 3.0 | 0.00 | 0.13 | 0.00 | 50 | 1009.0 |
| 20260507111536 | 38 | 279 | 1.0 | 8.0 | 0.00 | 0.13 | 0.00 | 51 | 1009.3 |
| 20260507110035 | 37 | 272 | 2.0 | 5.0 | 0.00 | 0.24 | 0.00 | 52 | 1008.9 |
| 20260507104535 | 36 | 317 | 3.0 | 5.0 | 0.00 | 0.24 | 0.00 | 52 | 1008.9 |
| 20260507103033 | 36 | 317 | 2.0 | 4.0 | 0.00 | 0.24 | 0.00 | 53 | 1008.7 |
| 20260507101539 | 36 | 318 | 0.0 | 3.0 | 0.00 | 0.24 | 0.00 | 54 | 1008.6 |
| 20260507100045 | 36 | 318 | 1.0 | 4.0 | 0.00 | 0.24 | 0.00 | 54 | 1008.8 |
| 20260507094531 | 36 | 318 | 1.0 | 3.0 | 0.00 | 0.24 | 0.00 | 55 | 1008.8 |
| 20260507093030 | 36 | 318 | 1.0 | 5.0 | 0.00 | 0.24 | 0.00 | 55 | 1008.7 |
| 20260507091530 | 36 | 319 | 1.0 | 4.0 | 0.00 | 0.24 | 0.00 | 56 | 1008.7 |
| 20260507090031 | 36 | 319 | 1.0 | 3.0 | 0.00 | 0.24 | 0.00 | 57 | 1008.6 |
| 20260507084524 | 36 | 319 | 1.0 | 3.0 | 0.00 | 0.24 | 0.00 | 57 | 1008.7 |
| 20260507083021 | 37 | 319 | 0.0 | 2.0 | 0.00 | 0.24 | 0.00 | 57 | 1008.7 |
| 20260507081521 | 37 | 319 | 0.0 | 1.0 | 0.00 | 0.24 | 0.00 | 57 | 1008.6 |
| 20260507080017 | 37 | 319 | 0.0 | 2.0 | 0.00 | 0.24 | 0.00 | 57 | 1008.8 |
| 20260507074514 | 38 | 319 | 0.0 | 2.0 | 0.00 | 0.24 | 0.00 | 57 | 1008.8 |
| 20260507073011 | 38 | 319 | 0.0 | 3.0 | 0.00 | 0.24 | 0.00 | 57 | 1008.9 |
| 20260507071511 | 39 | 319 | 1.0 | 3.0 | 0.00 | 0.24 | 0.00 | 56 | 1008.9 |
| 20260507070009 | 40 | 319 | 0.0 | 3.0 | 0.00 | 0.24 | 0.00 | 55 | 1008.9 |
| 20260507064503 | 40 | 319 | 0.0 | 0.0 | 0.00 | 0.24 | 0.00 | 55 | 1008.8 |
| 20260507063100 | 40 | 319 | 0.0 | 0.0 | 0.00 | 0.24 | 0.00 | 55 | 1008.8 |
| 20260507061600 | 41 | 319 | 0.0 | 0.0 | 0.00 | 0.24 | 0.00 | 54 | 1009.0 |
| 20260507060059 | 41 | 319 | 0.0 | 3.0 | 0.00 | 0.24 | 0.00 | 54 | 1009.2 |
| 20260507054556 | 41 | 319 | 1.0 | 3.0 | 0.00 | 0.24 | 0.00 | 54 | 1009.3 |
| 20260507053055 | 41 | 319 | 2.0 | 4.0 | 0.00 | 0.24 | 0.00 | 53 | 1009.5 |
| 20260507051553 | 41 | 315 | 1.0 | 4.0 | 0.00 | 0.24 | 0.00 | 52 | 1009.5 |
| 20260507050051 | 41 | 323 | 3.0 | 5.0 | 0.00 | 0.24 | 0.00 | 50 | 1009.6 |
| 20260507044550 | 41 | 322 | 1.0 | 8.0 | 0.00 | 0.24 | 0.00 | 49 | 1009.6 |
| 20260507043047 | 41 | 321 | 3.0 | 5.0 | 0.00 | 0.24 | 0.00 | 49 | 1009.4 |
| 20260507041547 | 42 | 322 | 3.0 | 5.0 | 0.00 | 0.24 | 0.00 | 49 | 1009.3 |
| 20260507040043 | 42 | 327 | 2.0 | 4.0 | 0.00 | 0.24 | 0.24 | 49 | 1009.3 |
| 20260507034544 | 42 | 327 | 3.0 | 5.0 | 0.00 | 0.24 | 0.24 | 49 | 1009.2 |
| 20260507033040 | 42 | 328 | 4.0 | 6.0 | 0.00 | 0.24 | 0.24 | 49 | 1009.1 |
| 20260507031539 | 42 | 328 | 3.0 | 6.0 | 0.00 | 0.24 | 0.24 | 49 | 1009.0 |
| 20260507030039 | 42 | 328 | 4.0 | 10.0 | 0.00 | 0.24 | 0.24 | 49 | 1009.0 |
| 20260507024537 | 42 | 334 | 4.0 | 9.0 | 0.00 | 0.24 | 0.24 | 49 | 1008.8 |
| 20260507023040 | 43 | 329 | 6.0 | 12.0 | 0.00 | 0.24 | 0.24 | 48 | 1008.9 |
| 20260507021532 | 43 | 348 | 4.0 | 9.0 | 0.00 | 0.24 | 0.24 | 48 | 1008.9 |
| 20260507020036 | 43 | 344 | 2.0 | 9.0 | 0.00 | 0.24 | 0.24 | 48 | 1008.9 |
| 20260507014541 | 43 | 351 | 5.0 | 12.0 | 0.00 | 0.24 | 0.24 | 49 | 1009.0 |
| 20260507013028 | 44 | 330 | 4.0 | 13.0 | 0.00 | 0.24 | 0.24 | 49 | 1008.7 |
| 20260507011528 | 44 | 350 | 7.0 | 13.0 | 0.00 | 0.24 | 0.24 | 49 | 1008.7 |
| 20260507010026 | 45 | 339 | 7.0 | 11.0 | 0.00 | 0.24 | 0.24 | 50 | 1008.7 |
| 20260507004533 | 45 | 339 | 7.0 | 13.0 | 0.00 | 0.24 | 0.24 | 50 | 1008.3 |
| 20260507003025 | 45 | 329 | 7.0 | 12.0 | 0.00 | 0.24 | 0.24 | 50 | 1008.2 |
| 20260507001525 | 46 | 325 | 9.0 | 16.0 | 0.00 | 0.24 | 0.24 | 51 | 1007.9 |
| 20260507000025 | 47 | 312 | 11.0 | 15.0 | 0.00 | 0.24 | 0.24 | 49 | 1007.8 |